[[{"header":{"parameterUnit":"m.s-1","parameterCategory":1,"la1":30.2991,"la2":30.254,"lo1":-89.0895,"lo2":-89.0444,"dy":0.0017,"dx":0.0017,"nx":28,"ny":28,"refTime":"2024-12-14T03:00:00:Z","depth":0,"parameterNumber":2,"parameterNumberName":"U-component_of_WINDS"},"data":[0,0,0,0,0,0,0,0,0,0,0,0,0,0,0,0,0,0,0,0,0,0,0,0,0,0,0,0,0,0,0,0,0,0,0,0,0,0,0,0,0,0,0,0,0,0,0,0,0,0,0,0,0,0,0,0,0,0,-7.1085,-7.1085,0,-7.1099,-7.1099,-7.11,-7.0979,-7.0976,-7.0972,-7.0969,-7.098,-7.0983,-7.0987,0,0,0,0,0,0,0,0,0,0,0,0,0,-7.0952,-7.0955,-7.1085,-7.1085,-7.1086,-7.1099,-7.1099,-7.11,-7.098,-7.0976,-7.0972,-7.0968,-7.0979,-7.0983,-7.0987,0,0,0,0,0,0,0,0,0,0,0,0,0,-7.0992,-7.0956,-7.1085,-7.1027,-7.1022,-7.1099,-7.1099,-7.11,-7.0981,-7.0975,-7.097,-7.0966,-7.0977,-7.0982,-7.0987,-7.1119,0,0,-7.1003,-7.1005,0,0,0,0,0,0,0,0,-7.099,-7.0997,-7.1036,-7.1032,-7.1026,-7.1032,-7.1056,-7.1106,-7.0982,-7.0996,-7.0969,-7.0963,-7.1001,-7.1004,-7.1017,-7.112,-7.112,-7.1003,-7.1007,-7.1009,-7.101,0,0,0,0,0,0,0,-7.0988,-7.0996,-7.1091,-7.1036,-7.1031,-7.1,-7.1,-7.1065,-7.1026,-7.0995,-7.0986,-7.099,-7.0997,-7.1013,-7.1017,-7.112,-7.1003,-7.1008,-7.1011,-7.1013,-7.1331,-7.1336,0,0,0,0,0,0,-7.0993,-7.0994,-7.109,-7.1091,-7.0996,-7.1007,-7.1007,-7.1035,-7.1026,-7.1019,-7.0994,-7.0984,-7.1007,-7.1011,-7.1017,-7.1169,-7.1009,-7.1013,-7.1016,-7.1326,-7.1332,-7.1338,0,0,0,0,0,0,-7.0991,-7.1003,-7.109,-7.1041,-7.1049,-7.1014,-7.1047,-7.1038,-7.1053,-7.1025,-7.1017,-7.1017,-7.1003,-7.101,-7.1095,-7.1168,-7.1016,-7.102,-7.1319,-7.1328,-7.1335,-7.1476,0,0,0,0,0,0,-7.0987,-7.1002,-7.1052,-7.1043,-7.1052,-7.1168,-7.1052,-7.1042,-7.1063,-7.105,-7.1044,-7.1038,-7.0999,-7.1088,-7.11,-7.1172,-7.1024,-7.1313,-7.1323,-7.1333,-7.1465,-7.1488,-7.1508,0,0,0,0,0,-7.0983,-7.1091,-7.1056,-7.1068,-7.1114,-7.1173,-7.1178,-7.1132,-7.107,-7.1119,-7.1101,-7.1039,-7.1159,-7.1098,-7.111,-7.1185,-7.1308,-7.132,-7.1332,-7.1455,-7.1484,-7.1508,0,0,0,0,0,0,-7.1108,-7.1088,-7.1049,-7.1157,-7.1168,-7.1152,-7.1213,-7.1164,-7.1191,-7.1178,-7.1119,-7.1119,-7.1214,-7.1208,-7.114,-7.1312,-7.1222,-7.1237,-7.1312,-7.1338,-7.136,-7.1357,-7.1029,0,0,0,0,0,-7.1148,-7.1199,-7.1178,-7.1276,-7.1283,-7.1248,-7.1272,-7.1236,-7.1244,-7.1247,-7.1235,-7.1245,-7.1284,-7.1312,-7.1347,-7.1465,-7.1461,-7.1523,-7.1545,-7.1563,-7.1575,-7.1637,-7.1664,-7.1378,-7.1378,-7.1378,0,0,-7.1231,-7.1227,-7.1262,-7.1301,-7.1305,-7.1357,-7.1252,-7.1312,-7.135,-7.1256,-7.1335,-7.1328,-7.1334,-7.1437,-7.1481,-7.1435,-7.1654,-7.1578,-7.1593,-7.1595,-7.1652,-7.1679,-7.1703,-7.1386,-7.1385,-7.1384,0,0,-7.1409,-7.1412,-7.1493,-7.15,-7.1509,-7.1485,-7.1505,-7.1498,-7.149,-7.1569,-7.15,-7.1545,-7.1615,-7.1622,-7.1635,-7.182,-7.1763,-7.1834,-7.1945,-7.2006,-7.2028,-7.2048,-7.2112,-7.2136,-7.1847,-7.1847,-7.1848,0,-7.151,-7.1587,-7.154,-7.1605,-7.1624,-7.1545,-7.1626,-7.1635,-7.1654,-7.1668,-7.1618,-7.1705,-7.1704,-7.1806,-7.1852,-7.1866,-7.1885,-7.1832,-7.2029,-7.2048,-7.2066,-7.2126,-7.2151,-7.1856,-7.1855,-7.1854,-7.1853,0,-7.1711,-7.1766,-7.1831,-7.1853,-7.188,-7.1953,-7.1916,-7.1948,-7.1912,-7.1894,-7.1976,-7.1973,-7.2006,-7.2028,-7.1992,-7.2127,-7.2098,-7.204,-7.1947,-7.2102,-7.2158,-7.2181,-7.1868,-7.1865,-7.1862,-7.186,0,0,-7.1963,-7.1962,-7.1986,-7.1995,-7.2001,-7.2041,-7.2112,-7.2146,-7.2174,-7.2192,-7.2247,-7.2311,-7.2257,-7.2272,-7.2237,-7.2291,-7.2436,-7.2225,-7.2225,-7.2262,-7.2582,-7.2623,-7.2651,-7.24,-7.2405,-7.2408,-7.2581,0,-7.2134,-7.2253,-7.2215,-7.2335,-7.2385,-7.2313,-7.2373,-7.2383,-7.2369,-7.2409,-7.2393,-7.2437,-7.2365,-7.2373,-7.2424,-7.2408,-7.2499,-7.2395,-7.2449,-7.2452,-7.2446,-7.268,-7.2724,-7.2887,-7.2602,-7.2606,-7.2609,0,-7.2348,-7.2376,-7.2503,-7.2501,-7.252,-7.2576,-7.2604,-7.2644,-7.2654,-7.264,-7.266,-7.2613,-7.2681,-7.2593,-7.2684,-7.2615,-7.2635,-7.2631,-7.2636,-7.2636,-7.2537,-7.2684,-7.2938,-7.2961,-7.2643,-7.264,-7.2638,0,-7.2516,-7.2586,-7.267,-7.2681,-7.2682,-7.2723,-7.2725,-7.273,-7.2754,-7.2779,-7.2794,-7.2827,-7.2844,-7.2871,-7.2835,-7.2774,-7.2931,-7.284,-7.292,-7.2921,-7.2952,-7.295,-7.321,-7.2972,-7.2972,-7.2971,-7.2971,0,-7.2709,-7.2789,-7.2746,-7.2797,-7.2884,-7.284,-7.2927,-7.2921,-7.2927,-7.2975,-7.2916,-7.2962,-7.2914,-7.2956,-7.2929,-7.3008,-7.3017,-7.3006,-7.2997,-7.3009,-7.301,-7.3019,-7.3005,-7.2978,-7.2976,-7.2975,-7.2974,0,-7.2909,-7.2884,-7.2971,-7.2966,-7.2967,-7.3031,-7.3027,-7.3074,-7.3058,-7.312,-7.3132,-7.3105,-7.3152,-7.312,-7.3167,-7.3148,-7.3252,-7.3229,-7.3248,-7.3241,-7.3322,-7.3313,-7.3593,-7.3626,-7.3371,-7.3373,-7.3376,0,-7.3032,-7.3091,-7.3095,-7.3124,-7.313,-7.3178,-7.3203,-7.3163,-7.3191,-7.3208,-7.3253,-7.3296,-7.3326,-7.3404,-7.3388,-7.3424,-7.3399,-7.3495,-7.3404,-7.3414,-7.3397,-7.3392,-7.3397,-7.3512,-7.3515,-7.3517,-7.3519,0,-7.3251,-7.3237,-7.3275,-7.3311,-7.3343,-7.3368,-7.3388,-7.3416,-7.3376,-7.341,-7.3458,-7.3483,-7.3532,-7.3574,-7.3604,-7.3604,-7.3555,-7.3549,-7.3569,-7.358,-7.3588,-7.3582,-7.3295,-7.3542,-7.3539,-7.3538,-7.3537,-7.3536,-7.3414,-7.3464,-7.3474,-7.3519,-7.3532,-7.3553,-7.3597,-7.3588,-7.3628,-7.3665,-7.364,-7.3697,-7.3707,-7.3742,-7.375,-7.3793,-7.3753,-7.3783,-7.3789,-7.3796,-7.3806,-7.3585,-7.3799,-7.3798,-7.3797,-7.3797,-7.3796,0,-7.3627,-7.3632,-7.3675,-7.3706,-7.3743,-7.3697,-7.3718,-7.375,-7.3802,-7.3816,-7.3849,-7.3905,-7.3947,-7.3936,-7.3973,-7.401,-7.3988,-7.402,-7.4015,-7.4016,-7.3841,-7.3819,-7.4037,-7.4037,-7.4037,-7.4037,-7.4037,-7.4037,-7.3743,-7.3824,-7.3812,-7.3899,-7.3903,-7.3959,-7.3975,-7.3994,-7.4006,-7.4071,-7.4106,-7.41,-7.4104,-7.4142,-7.4178,-7.4174,-7.4188,-7.4229,-7.4216,-7.4052,-7.4028,-7.4005,-7.3984,-7.4233,-7.4234,-7.4386,-7.4388,-7.4389]},{"header":{"parameterUnit":"m.s-1","parameterCategory":1,"la1":30.2991,"la2":30.254,"lo1":-89.0895,"lo2":-89.0444,"dy":0.0017,"dx":0.0017,"nx":28,"ny":28,"refTime":"2024-12-14T03:00:00:Z","depth":0,"parameterNumber":3,"parameterNumberName":"V-component_of_WINDS"},"data":[0,0,0,0,0,0,0,0,0,0,0,0,0,0,0,0,0,0,0,0,0,0,0,0,0,0,0,0,0,0,0,0,0,0,0,0,0,0,0,0,0,0,0,0,0,0,0,0,0,0,0,0,0,0,0,0,0,0,0.915,0.915,0,0.9143,0.9142,0.9142,0.918,0.9181,0.9182,0.9183,0.9171,0.9169,0.9168,0,0,0,0,0,0,0,0,0,0,0,0,0,0.9194,0.9193,0.915,0.915,0.915,0.9143,0.9142,0.9142,0.918,0.9181,0.9182,0.9184,0.9171,0.9169,0.9168,0,0,0,0,0,0,0,0,0,0,0,0,0,0.9179,0.9192,0.915,0.9168,0.9169,0.9143,0.9142,0.9142,0.9179,0.9181,0.9183,0.9184,0.9172,0.917,0.9168,0.9122,0,0,0.9161,0.916,0,0,0,0,0,0,0,0,0.918,0.9177,0.9165,0.9166,0.9168,0.9164,0.9153,0.9135,0.9179,0.9175,0.9183,0.9185,0.9167,0.9165,0.916,0.9121,0.9121,0.9161,0.916,0.9159,0.9158,0,0,0,0,0,0,0,0.9181,0.9178,0.9147,0.9165,0.9167,0.9175,0.9175,0.915,0.9162,0.9176,0.9179,0.9177,0.9168,0.9162,0.916,0.9121,0.9161,0.9159,0.9158,0.9157,0.9048,0.9046,0,0,0,0,0,0,0.918,0.9179,0.9147,0.9147,0.9178,0.9173,0.9173,0.9163,0.9162,0.9164,0.9176,0.9179,0.9165,0.9162,0.916,0.9109,0.9159,0.9157,0.9156,0.9049,0.9047,0.9045,0,0,0,0,0,0,0.9181,0.9177,0.9147,0.9163,0.916,0.9171,0.916,0.9162,0.9157,0.9162,0.9164,0.9168,0.9166,0.9163,0.9132,0.9109,0.9156,0.9154,0.9051,0.9049,0.9046,0.9005,0,0,0,0,0,0,0.9182,0.9177,0.916,0.9163,0.9159,0.9121,0.9158,0.9161,0.9154,0.9158,0.9155,0.9157,0.9167,0.9135,0.913,0.9107,0.9153,0.9053,0.905,0.9047,0.9009,0.9002,0.8996,0,0,0,0,0,0.9183,0.9147,0.9159,0.9155,0.9139,0.9119,0.9117,0.9131,0.9152,0.9135,0.9139,0.9157,0.9112,0.9132,0.9126,0.9102,0.9055,0.9051,0.9047,0.9012,0.9003,0.8996,0,0,0,0,0,0,0.9139,0.9148,0.9161,0.9125,0.9121,0.9126,0.9105,0.9121,0.911,0.9114,0.9131,0.913,0.9097,0.9096,0.9118,0.906,0.9087,0.9082,0.9062,0.9053,0.9047,0.9048,0.9151,0,0,0,0,0,0.9125,0.911,0.9118,0.9085,0.9083,0.9094,0.9086,0.9098,0.9094,0.9092,0.9094,0.9088,0.9074,0.9063,0.9049,0.9009,0.901,0.8989,0.8983,0.8977,0.8973,0.8954,0.8946,0.9033,0.9033,0.9033,0,0,0.9096,0.9099,0.9088,0.9076,0.9075,0.9058,0.9092,0.9072,0.9061,0.9088,0.9061,0.9062,0.9057,0.9023,0.9007,0.9021,0.895,0.8973,0.8968,0.8967,0.895,0.8941,0.8934,0.903,0.9031,0.9031,0,0,0.9035,0.9035,0.901,0.9008,0.9007,0.9015,0.9009,0.9012,0.9014,0.8988,0.9009,0.8994,0.8967,0.8964,0.8959,0.89,0.8917,0.8895,0.8861,0.8842,0.8835,0.8829,0.8811,0.8803,0.889,0.889,0.889,0,0.8999,0.8976,0.8994,0.8974,0.8969,0.8996,0.897,0.8967,0.8961,0.8956,0.8972,0.8942,0.894,0.8906,0.8892,0.8886,0.888,0.8896,0.8835,0.8829,0.8824,0.8806,0.8799,0.8888,0.8888,0.8888,0.8889,0,0.8933,0.8917,0.8896,0.8892,0.8885,0.8861,0.8875,0.8865,0.8878,0.8884,0.8858,0.8857,0.8845,0.8838,0.8848,0.8806,0.8815,0.8833,0.8861,0.8813,0.8797,0.879,0.8884,0.8885,0.8886,0.8887,0,0,0.8843,0.8852,0.8844,0.8844,0.8845,0.8833,0.8811,0.8802,0.8794,0.8789,0.8772,0.875,0.8768,0.8762,0.8772,0.8756,0.8713,0.8776,0.8776,0.8766,0.8669,0.8657,0.8649,0.8723,0.8722,0.8721,0.867,0,0.8786,0.8752,0.8768,0.8732,0.8719,0.8745,0.8727,0.8726,0.8731,0.872,0.8726,0.8711,0.8734,0.8731,0.8716,0.8721,0.8694,0.8725,0.8708,0.8708,0.8711,0.864,0.8627,0.8578,0.8663,0.8662,0.8661,0,0.8714,0.871,0.8673,0.868,0.8675,0.8658,0.8653,0.8641,0.8641,0.8647,0.8642,0.8657,0.8636,0.8664,0.8637,0.8658,0.8652,0.8653,0.8652,0.8652,0.8683,0.864,0.8563,0.8557,0.8651,0.8652,0.8653,0,0.8656,0.864,0.8617,0.8615,0.8622,0.861,0.8612,0.8614,0.8608,0.8602,0.8599,0.859,0.8586,0.8578,0.8591,0.8609,0.8563,0.859,0.8567,0.8567,0.8557,0.8558,0.848,0.855,0.855,0.855,0.855,0,0.8591,0.8568,0.8591,0.8577,0.8553,0.8571,0.8546,0.8551,0.8552,0.854,0.856,0.8548,0.8564,0.8553,0.8562,0.854,0.8537,0.8541,0.8544,0.854,0.854,0.8538,0.8542,0.8548,0.8549,0.8549,0.855,0,0.8522,0.8536,0.8513,0.8523,0.8525,0.8506,0.8514,0.8502,0.851,0.8493,0.849,0.8503,0.8491,0.8503,0.8491,0.8497,0.8468,0.8474,0.8469,0.8471,0.8449,0.8451,0.8368,0.8359,0.8433,0.8432,0.8432,0,0.8481,0.8464,0.8473,0.8467,0.8469,0.8458,0.8454,0.8472,0.8466,0.8466,0.8453,0.8444,0.8438,0.8417,0.8425,0.8416,0.8424,0.8396,0.8423,0.8421,0.8426,0.8428,0.8428,0.839,0.8389,0.8389,0.8388,0,0.8407,0.8416,0.8409,0.8406,0.84,0.8398,0.8396,0.839,0.8409,0.8401,0.8391,0.8386,0.8376,0.8366,0.8361,0.8362,0.8378,0.838,0.8374,0.8371,0.8369,0.8372,0.8456,0.8382,0.8382,0.8383,0.8383,0.8383,0.8352,0.834,0.8346,0.8338,0.834,0.8339,0.8329,0.8337,0.8329,0.8324,0.8334,0.8322,0.8323,0.8318,0.8317,0.8308,0.832,0.8311,0.8309,0.8307,0.8305,0.837,0.8306,0.8306,0.8307,0.8307,0.8307,0,0.8282,0.8287,0.828,0.828,0.8274,0.8292,0.8292,0.8286,0.8276,0.8277,0.8271,0.826,0.8252,0.8259,0.8253,0.8244,0.8251,0.8241,0.8243,0.8244,0.8294,0.83,0.8236,0.8236,0.8236,0.8236,0.8236,0.8236,0.8245,0.8226,0.8236,0.8218,0.8224,0.8213,0.8212,0.8212,0.8213,0.8201,0.8195,0.8201,0.8205,0.8199,0.8193,0.8195,0.8193,0.8181,0.8186,0.8233,0.824,0.8246,0.8253,0.8179,0.8179,0.8137,0.8136,0.8136]}]]